When you browse on this site, cookies collect data to enhance your experience and personalize the content and advertising you see.
Visit our Privacy Policy to learn more. By continuing to use the site, you agree to this use of cookies and data.
  • Em Portugal
  • Lista de países
  • Para 7 dias
  • Temperatura da água
  • Mapas de satélite
  • Mapa do tempo
  • Widgets de tempo
  • user-avatar
    Iniciar Sessão

    Previsão horária em Mauda

    Hoje, 25 Maio, Sábado

    Tempo Temperatura Precipitação Vento Pressão Humidade
    00:00 +9°C° 0 mm 2 m/s 735 mmHg 80%
    01:00 +10°C° 0 mm 1 m/s 735 mmHg 79%
    02:00 +10°C° 0 mm 1 m/s 734 mmHg 81%
    03:00 +10°C° 0 mm 1 m/s 734 mmHg 80%
    04:00 +9°C° 0 mm 2 m/s 734 mmHg 80%
    05:00 +9°C° 0 mm 2 m/s 734 mmHg 79%
    06:00 +12°C° 0 mm 2 m/s 734 mmHg 78%
    07:00 +13°C° 0 mm 3 m/s 734 mmHg 76%
    08:00 +15°C° 0 mm 4 m/s 734 mmHg 73%
    09:00 +16°C° 0.1 mm 5 m/s 734 mmHg 70%
    10:00 +17°C° 0.1 mm 5 m/s 734 mmHg 68%
    11:00 +19°C° 0.1 mm 5 m/s 734 mmHg 66%
    12:00 +17°C° 0.3 mm 5 m/s 734 mmHg 69%
    13:00 +17°C° 0.3 mm 5 m/s 734 mmHg 73%
    14:00 +16°C° 0.3 mm 5 m/s 734 mmHg 76%
    15:00 +15°C° 0 mm 5 m/s 734 mmHg 75%
    16:00 +15°C° 0 mm 5 m/s 734 mmHg 73%
    17:00 +14°C° 0 mm 5 m/s 734 mmHg 72%
    18:00 +13°C° 0 mm 5 m/s 734 mmHg 76%
    19:00 +12°C° 0 mm 4 m/s 734 mmHg 80%
    20:00 +10°C° 0 mm 3 m/s 734 mmHg 85%
    21:00 +9°C° 0 mm 3 m/s 735 mmHg 88%
    22:00 +8°C° 0 mm 3 m/s 735 mmHg 92%
    23:00 +7°C° 0 mm 3 m/s 735 mmHg 96%

    Amanhã, 26 Maio, Domingo

    Tempo Temperatura Precipitação Vento Pressão Humidade
    00:00 +6°C° 0 mm 2 m/s 735 mmHg 96%
    01:00 +6°C° 0 mm 2 m/s 735 mmHg 97%
    02:00 +5°C° 0 mm 2 m/s 735 mmHg 97%
    03:00 +5°C° 0 mm 3 m/s 735 mmHg 97%
    04:00 +5°C° 0 mm 3 m/s 735 mmHg 97%
    05:00 +5°C° 0 mm 3 m/s 735 mmHg 97%
    06:00 +7°C° 0 mm 3 m/s 735 mmHg 91%
    07:00 +8°C° 0 mm 4 m/s 735 mmHg 86%
    08:00 +10°C° 0 mm 5 m/s 735 mmHg 80%
    09:00 +10°C° 0 mm 5 m/s 735 mmHg 80%
    10:00 +10°C° 0 mm 5 m/s 734 mmHg 81%
    11:00 +10°C° 0 mm 5 m/s 734 mmHg 82%
    12:00 +12°C° 0.1 mm 5 m/s 734 mmHg 80%
    13:00 +12°C° 0.1 mm 5 m/s 734 mmHg 79%
    14:00 +11°C° 0.1 mm 6 m/s 734 mmHg 77%
    15:00 +13°C° 0.1 mm 6 m/s 734 mmHg 77%
    16:00 +13°C° 0.1 mm 6 m/s 734 mmHg 76%
    17:00 +13°C° 0.1 mm 6 m/s 734 mmHg 75%
    18:00 +13°C° 0 mm 5 m/s 734 mmHg 78%
    19:00 +12°C° 0 mm 4 m/s 733 mmHg 81%
    20:00 +12°C° 0 mm 3 m/s 733 mmHg 84%
    21:00 +11°C° 0 mm 3 m/s 733 mmHg 86%
    22:00 +10°C° 0 mm 4 m/s 733 mmHg 88%
    23:00 +8°C° 0 mm 4 m/s 733 mmHg 91%

    Depois de amanhã, 27 Maio, Segunda-feira

    Tempo Temperatura Precipitação Vento Pressão Humidade
    00:00 +10°C° 0 mm 4 m/s 733 mmHg 88%
    01:00 +11°C° 0 mm 4 m/s 733 mmHg 86%
    02:00 +12°C° 0 mm 4 m/s 733 mmHg 83%
    03:00 +11°C° 0 mm 4 m/s 733 mmHg 86%
    04:00 +11°C° 0 mm 4 m/s 732 mmHg 89%
    05:00 +11°C° 0 mm 4 m/s 732 mmHg 91%
    06:00 +12°C° 0 mm 4 m/s 732 mmHg 88%
    07:00 +13°C° 0 mm 4 m/s 732 mmHg 85%
    08:00 +14°C° 0 mm 5 m/s 733 mmHg 82%
    09:00 +15°C° 0.2 mm 6 m/s 732 mmHg 80%
    10:00 +16°C° 0.2 mm 6 m/s 732 mmHg 79%
    11:00 +17°C° 0.2 mm 7 m/s 732 mmHg 78%
    12:00 +17°C° 0.5 mm 6 m/s 732 mmHg 80%
    13:00 +17°C° 0.5 mm 6 m/s 732 mmHg 83%
    14:00 +17°C° 0.5 mm 5 m/s 732 mmHg 86%
    15:00 +16°C° 1.4 mm 5 m/s 732 mmHg 87%
    16:00 +16°C° 1.4 mm 5 m/s 732 mmHg 89%
    17:00 +16°C° 1.4 mm 5 m/s 732 mmHg 90%
    18:00 +17°C° 0.5 mm 4 m/s 732 mmHg 92%
    19:00 +16°C° 0.5 mm 3 m/s 733 mmHg 94%
    20:00 +15°C° 0.5 mm 2 m/s 733 mmHg 96%
    21:00 +15°C° 0 mm 2 m/s 733 mmHg 96%
    22:00 +14°C° 0 mm 2 m/s 734 mmHg 96%
    23:00 +13°C° 0 mm 2 m/s 734 mmHg 97%

    28 Maio, Terça-feira

    Tempo Temperatura Precipitação Vento Pressão Humidade
    00:00 +13°C° 0 mm 2 m/s 734 mmHg 96%
    01:00 +12°C° 0 mm 1 m/s 734 mmHg 94%
    02:00 +11°C° 0 mm 1 m/s 734 mmHg 93%
    03:00 +11°C° 0 mm 1 m/s 734 mmHg 93%
    04:00 +11°C° 0 mm 1 m/s 734 mmHg 92%
    05:00 +11°C° 0 mm 1 m/s 734 mmHg 91%
    06:00 +12°C° 0 mm 1 m/s 734 mmHg 90%
    07:00 +12°C° 0 mm 2 m/s 734 mmHg 89%
    08:00 +13°C° 0 mm 2 m/s 734 mmHg 88%
    09:00 +13°C° 1.2 mm 2 m/s 734 mmHg 90%
    10:00 +12°C° 1.2 mm 3 m/s 734 mmHg 92%
    11:00 +13°C° 1.2 mm 3 m/s 733 mmHg 94%
    12:00 +13°C° 1.8 mm 3 m/s 733 mmHg 95%
    13:00 +13°C° 1.8 mm 3 m/s 733 mmHg 96%
    14:00 +13°C° 1.8 mm 3 m/s 732 mmHg 97%
    15:00 +14°C° 0.1 mm 3 m/s 732 mmHg 96%
    16:00 +14°C° 0.1 mm 3 m/s 732 mmHg 96%
    17:00 +16°C° 0.1 mm 3 m/s 731 mmHg 95%
    18:00 +14°C° 0 mm 3 m/s 731 mmHg 96%
    19:00 +14°C° 0 mm 3 m/s 731 mmHg 97%
    20:00 +13°C° 0 mm 3 m/s 731 mmHg 97%
    21:00 +13°C° 0.1 mm 3 m/s 731 mmHg 98%
    22:00 +13°C° 0.1 mm 3 m/s 731 mmHg 98%
    23:00 +12°C° 0.1 mm 3 m/s 731 mmHg 98%

    29 Maio, Quarta-feira

    Tempo Temperatura Precipitação Vento Pressão Humidade
    00:00 +13°C° 0.3 mm 2 m/s 731 mmHg 98%
    01:00 +13°C° 0.3 mm 2 m/s 731 mmHg 98%
    02:00 +13°C° 0.3 mm 2 m/s 730 mmHg 99%
    03:00 +14°C° 0.2 mm 2 m/s 730 mmHg 99%
    04:00 +14°C° 0.2 mm 2 m/s 730 mmHg 98%
    05:00 +14°C° 0.2 mm 2 m/s 730 mmHg 98%
    06:00 +14°C° 0 mm 2 m/s 730 mmHg 98%
    07:00 +13°C° 0 mm 3 m/s 731 mmHg 97%
    08:00 +13°C° 0 mm 3 m/s 731 mmHg 97%
    09:00 +13°C° 0.3 mm 3 m/s 731 mmHg 96%
    10:00 +13°C° 0.3 mm 4 m/s 731 mmHg 95%
    11:00 +14°C° 0.3 mm 4 m/s 732 mmHg 94%
    12:00 +13°C° 0.8 mm 5 m/s 732 mmHg 94%
    13:00 +12°C° 0.8 mm 5 m/s 733 mmHg 95%
    14:00 +11°C° 0.8 mm 6 m/s 733 mmHg 95%
    15:00 +10°C° 0.9 mm 6 m/s 733 mmHg 95%
    16:00 +10°C° 0.9 mm 6 m/s 734 mmHg 95%
    17:00 +9°C° 0.9 mm 7 m/s 734 mmHg 96%
    18:00 +8°C° 1 mm 7 m/s 735 mmHg 95%
    19:00 +8°C° 1 mm 7 m/s 735 mmHg 95%
    20:00 +7°C° 1 mm 6 m/s 736 mmHg 95%
    21:00 +7°C° 0.2 mm 6 m/s 736 mmHg 94%
    22:00 +6°C° 0.2 mm 5 m/s 737 mmHg 92%
    23:00 +6°C° 0.2 mm 5 m/s 738 mmHg 91%

    30 Maio, Quinta-feira

    Tempo Temperatura Precipitação Vento Pressão Humidade
    00:00 +5°C° 0 mm 5 m/s 738 mmHg 90%
    01:00 +5°C° 0 mm 4 m/s 738 mmHg 90%
    02:00 +5°C° 0 mm 4 m/s 739 mmHg 89%
    03:00 +4°C° 0 mm 3 m/s 739 mmHg 90%
    04:00 +3°C° 0 mm 3 m/s 740 mmHg 90%
    05:00 +4°C° 0 mm 2 m/s 740 mmHg 90%
    06:00 +6°C° 0 mm 2 m/s 741 mmHg 85%
    07:00 +8°C° 0 mm 3 m/s 741 mmHg 79%
    08:00 +9°C° 0 mm 3 m/s 742 mmHg 73%
    09:00 +11°C° 0 mm 3 m/s 742 mmHg 67%
    10:00 +12°C° 0 mm 3 m/s 742 mmHg 60%
    11:00 +14°C° 0 mm 3 m/s 743 mmHg 54%
    12:00 +15°C° 0 mm 2 m/s 743 mmHg 53%
    13:00 +16°C° 0 mm 2 m/s 743 mmHg 52%
    14:00 +16°C° 0 mm 2 m/s 743 mmHg 51%
    15:00 +16°C° 0 mm 2 m/s 743 mmHg 52%
    16:00 +16°C° 0 mm 2 m/s 743 mmHg 53%
    17:00 +16°C° 0 mm 1 m/s 743 mmHg 54%
    18:00 +15°C° 0 mm 1 m/s 743 mmHg 61%
    19:00 +14°C° 0 mm 1 m/s 742 mmHg 68%
    20:00 +12°C° 0 mm 1 m/s 742 mmHg 75%
    21:00 +11°C° 0 mm 1 m/s 742 mmHg 76%
    22:00 +10°C° 0 mm 1 m/s 742 mmHg 78%
    23:00 +9°C° 0 mm 1 m/s 742 mmHg 80%
    Mostrar mais